Weather History for Hallock, MN

Change the Weather History Date:

Saturday, May 25, 2013

  Actual Average Record
Temperature  
Mean Temperature 61 °F -  
Max Temperature 71 °F 70 °F 88 °F (1941)
Min Temperature 51 °F 47 °F 29 °F (1983)
Degree Days  
Heating Degree Days 4    
Growing Degree Days 11 (Base 50)    
Moisture  
Dew Point 52 °F    
Average Humidity 75    
Maximum Humidity 100    
Minimum Humidity 49    
Precipitation  
Precipitation 0.03 in - - ()
Sea Level Pressure  
Sea Level Pressure 30.14 in    
Wind  
Wind Speed 11 mph (SE)    
Max Wind Speed 20 mph    
Max Gust Speed 23 mph    
Visibility 9 miles    
Events Rain    
Averages and records for this station are not official NWS values.
T = Trace of Precipitation, MM = Missing Value Source: NWS Daily Summary

Daily Weather History Graph

Daily Weather History Graph

Search for Another Location

Airport:

Trip Planner

Search our weather history database for the weather conditions in past years. The results will help you decide how hot, cold, wet, or windy it might be!

Date:

Astronomy

May. 25, 2013 Rise Set
Actual Time 5:34 AM CDT 9:15 PM CDT
Civil Twilight 4:54 AM CDT 9:55 PM CDT
Nautical Twilight 4:01 AM CDT 10:49 PM CDT
Astronomical Twilight 2:44 AM CDT 12:07 AM CDT
Moon 10:03 PM CDT (5/25) 6:04 AM CDT (5/25)
Length of Visible Light 17h 00m
Length of Day
15h 40m
Full, 100% of the Moon is Illuminated
May 25
Full
May 31
Last Quarter
Jun 8
New
Jun 16
First Quarter
Jun 23
Full

Hourly Weather History & Observations

Time (CDT) Temp. Dew Point Humidity Pressure Visibility Wind Dir Wind Speed Gust Speed Precip Events Conditions
12:13 AM 53.6 °F 46.4 °F 77% 30.17 in 10.0 mi SSE 9.2 mph - N/A   Overcast
12:33 AM 53.6 °F 46.4 °F 77% 30.17 in 10.0 mi SE 9.2 mph - N/A   Overcast
12:53 AM 53.6 °F 46.4 °F 77% 30.17 in 10.0 mi SE 9.2 mph - N/A   Overcast
1:13 AM 53.6 °F 48.2 °F 82% 30.17 in 10.0 mi SE 10.4 mph - N/A   Overcast
1:33 AM 53.6 °F 48.2 °F 82% 30.17 in 10.0 mi SSE 10.4 mph - N/A   Overcast
1:53 AM 51.8 °F 50.0 °F 94% 30.16 in 7.0 mi SSE 11.5 mph - N/A   Overcast
2:13 AM 53.6 °F 50.0 °F 88% 30.16 in 10.0 mi SE 10.4 mph - N/A   Overcast
2:33 AM 53.6 °F 50.0 °F 88% 30.16 in 10.0 mi SE 12.7 mph - N/A   Overcast
2:53 AM 53.6 °F 48.2 °F 82% 30.16 in 10.0 mi ESE 9.2 mph - N/A   Overcast
3:13 AM 53.6 °F 51.8 °F 94% 30.15 in 4.0 mi ESE 9.2 mph - N/A Rain Light Rain
3:33 AM 53.6 °F 51.8 °F 94% 30.14 in 2.0 mi ESE 10.4 mph - 0.01 in Rain Rain
3:53 AM 53.6 °F 51.8 °F 94% 30.14 in 1.8 mi ESE 10.4 mph - 0.02 in Rain Rain
4:13 AM 53.6 °F 51.8 °F 94% 30.13 in 2.0 mi East 10.4 mph - N/A   Light Drizzle
4:33 AM 53.6 °F 51.8 °F 94% 30.13 in 1.5 mi East 11.5 mph - 0.01 in   Drizzle
4:53 AM 53.6 °F 51.8 °F 94% 30.13 in 2.0 mi East 11.5 mph - 0.01 in Rain Light Rain
5:13 AM 53.6 °F 51.8 °F 94% 30.13 in 7.0 mi East 13.8 mph - N/A   Overcast
5:33 AM 53.6 °F 51.8 °F 94% 30.14 in 10.0 mi ESE 10.4 mph - N/A   Overcast
5:54 AM 53.6 °F 51.8 °F 94% 30.14 in 10.0 mi East 12.7 mph - N/A   Overcast
6:13 AM 53.6 °F 51.8 °F 94% 30.15 in 10.0 mi ESE 12.7 mph - N/A   Overcast
6:33 AM 53.6 °F 51.8 °F 94% 30.15 in 10.0 mi ESE 15.0 mph - N/A   Overcast
6:54 AM 53.6 °F 51.8 °F 94% 30.16 in 10.0 mi ESE 11.5 mph - N/A   Overcast
7:13 AM 53.6 °F 51.8 °F 94% 30.16 in 10.0 mi ESE 10.4 mph - N/A   Overcast
7:33 AM 53.6 °F 53.6 °F 100% 30.16 in 10.0 mi ESE 11.5 mph - N/A   Overcast
7:53 AM 53.6 °F 53.6 °F 100% 30.15 in 10.0 mi ESE 11.5 mph - N/A   Overcast
8:13 AM 55.4 °F 53.6 °F 94% 30.15 in 10.0 mi ESE 11.5 mph - N/A   Overcast
8:33 AM 55.4 °F 53.6 °F 94% 30.15 in 10.0 mi ESE 11.5 mph - N/A   Overcast
8:53 AM 55.4 °F 53.6 °F 94% 30.15 in 10.0 mi ESE 11.5 mph - N/A   Overcast
9:13 AM 55.4 °F 53.6 °F 94% 30.15 in 10.0 mi ESE 11.5 mph - N/A   Overcast
9:32 AM 55.4 °F 53.6 °F 94% 30.15 in 10.0 mi ESE 10.4 mph - N/A   Overcast
9:53 AM 57.2 °F 53.6 °F 88% 30.15 in 10.0 mi ESE 10.4 mph - N/A   Overcast
10:13 AM 57.2 °F 53.6 °F 88% 30.16 in 10.0 mi ESE 11.5 mph - N/A   Overcast
10:33 AM 57.2 °F 53.6 °F 88% 30.15 in 10.0 mi ESE 12.7 mph 17.3 mph N/A   Overcast
10:53 AM 57.2 °F 53.6 °F 88% 30.15 in 10.0 mi SE 13.8 mph - N/A   Overcast
11:13 AM 59.0 °F 55.4 °F 88% 30.15 in 10.0 mi SE 12.7 mph - N/A   Mostly Cloudy
11:33 AM 60.8 °F 55.4 °F 82% 30.15 in 10.0 mi SE 15.0 mph - N/A   Overcast
11:53 AM 60.8 °F 55.4 °F 82% 30.15 in 10.0 mi SE 16.1 mph - N/A   Mostly Cloudy
12:13 PM 60.8 °F 55.4 °F 82% 30.15 in 10.0 mi SE 11.5 mph - N/A   Mostly Cloudy
12:33 PM 60.8 °F 55.4 °F 82% 30.15 in 10.0 mi ESE 11.5 mph 17.3 mph N/A   Mostly Cloudy
12:53 PM 62.6 °F 55.4 °F 77% 30.15 in 10.0 mi ESE 12.7 mph - N/A   Mostly Cloudy
1:13 PM 62.6 °F 55.4 °F 77% 30.15 in 10.0 mi ESE 10.4 mph - N/A   Overcast
1:33 PM 62.6 °F 55.4 °F 77% 30.14 in 10.0 mi ESE 12.7 mph 18.4 mph N/A   Overcast
1:53 PM 64.4 °F 55.4 °F 73% 30.14 in 10.0 mi ESE 11.5 mph 18.4 mph N/A   Overcast
2:14 PM 64.4 °F 55.4 °F 73% 30.13 in 10.0 mi ESE 12.7 mph - N/A   Overcast
2:33 PM 66.2 °F 55.4 °F 68% 30.13 in 10.0 mi SE 13.8 mph 19.6 mph N/A   Overcast
2:53 PM 66.2 °F 55.4 °F 68% 30.13 in 10.0 mi SE 12.7 mph - N/A   Overcast
3:14 PM 66.2 °F 55.4 °F 68% 30.12 in 10.0 mi SE 12.7 mph - N/A   Overcast
3:33 PM 68.0 °F 53.6 °F 60% 30.12 in 10.0 mi SE 16.1 mph 21.9 mph N/A   Overcast
3:53 PM 69.8 °F 53.6 °F 56% 30.12 in 10.0 mi SSE 18.4 mph 23.0 mph N/A   Mostly Cloudy
4:13 PM 69.8 °F 51.8 °F 53% 30.12 in 10.0 mi SSE 16.1 mph 23.0 mph N/A   Overcast
4:33 PM 69.8 °F 51.8 °F 53% 30.12 in 10.0 mi SE 17.3 mph - N/A   Overcast
4:54 PM 69.8 °F 51.8 °F 53% 30.12 in 10.0 mi SSE 16.1 mph 23.0 mph N/A   Overcast
5:13 PM 69.8 °F 51.8 °F 53% 30.11 in 10.0 mi SE 19.6 mph - N/A   Mostly Cloudy
5:33 PM 69.8 °F 51.8 °F 53% 30.12 in 10.0 mi SSE 17.3 mph 20.7 mph N/A   Mostly Cloudy
5:54 PM 71.6 °F 51.8 °F 50% 30.11 in 10.0 mi SE 18.4 mph - N/A   Mostly Cloudy
6:13 PM 69.8 °F 50.0 °F 49% 30.10 in 10.0 mi SSE 17.3 mph - N/A   Overcast
6:33 PM 69.8 °F 50.0 °F 49% 30.11 in 10.0 mi SE 16.1 mph - N/A   Overcast
6:54 PM 69.8 °F 50.0 °F 49% 30.12 in 10.0 mi SE 16.1 mph - N/A   Overcast
7:13 PM 69.8 °F 50.0 °F 49% 30.11 in 10.0 mi SE 10.4 mph - N/A   Overcast
7:33 PM 68.0 °F 50.0 °F 52% 30.11 in 10.0 mi SE 11.5 mph - N/A   Overcast
7:54 PM 68.0 °F 48.2 °F 49% 30.10 in 10.0 mi ESE 11.5 mph - N/A   Mostly Cloudy
8:13 PM 68.0 °F 48.2 °F 49% 30.11 in 10.0 mi SE 10.4 mph - N/A   Mostly Cloudy
8:33 PM 68.0 °F 48.2 °F 49% 30.12 in 10.0 mi SE 9.2 mph - N/A   Overcast
8:54 PM 66.2 °F 48.2 °F 52% 30.12 in 10.0 mi SE 8.1 mph - N/A   Overcast
9:13 PM 66.2 °F 48.2 °F 52% 30.12 in 10.0 mi ESE 9.2 mph - N/A   Overcast
9:33 PM 64.4 °F 48.2 °F 56% 30.12 in 10.0 mi East 8.1 mph - N/A   Overcast
9:54 PM 64.4 °F 50.0 °F 59% 30.12 in 10.0 mi ESE 10.4 mph - N/A   Overcast
10:13 PM 64.4 °F 50.0 °F 59% 30.12 in 10.0 mi ESE 10.4 mph - N/A   Mostly Cloudy
10:33 PM 62.6 °F 50.0 °F 63% 30.12 in 10.0 mi ESE 10.4 mph - N/A   Scattered Clouds
10:53 PM 62.6 °F 48.2 °F 59% 30.12 in 10.0 mi ESE 11.5 mph - N/A   Clear
11:13 PM 60.8 °F 48.2 °F 63% 30.13 in 10.0 mi SSE 9.2 mph - N/A   Clear
11:33 PM 57.2 °F 48.2 °F 72% 30.14 in 10.0 mi SSE 9.2 mph - N/A   Clear
11:53 PM 57.2 °F 50.0 °F 77% 30.13 in 10.0 mi SE 11.5 mph - N/A   Scattered Clouds